West Point, VA

8:11 PM EST on December 11, 2017 (GMT -0500)
West Point

Weather History for KFYJ - January, 2014

Change the Weather History Date:

Friday, January 17, 2014

  Actual Average (KJGG) Record (KJGG)
Temperature  
Mean Temperature 42 °F -  
Max Temperature 52 °F 48 °F 70 °F (1990)
Min Temperature 33 °F 24 °F 0 °F (1977)
Degree Days  
Heating Degree Days 22    
Moisture  
Dew Point 29 °F    
Average Humidity 61    
Maximum Humidity 85    
Minimum Humidity 37    
Precipitation  
Precipitation 0.00 in - - ()
Sea Level Pressure  
Sea Level Pressure 29.95 in    
Wind  
Wind Speed 6 mph (SSE)    
Max Wind Speed 10 mph    
Max Gust Speed -    
Visibility 10 miles    
Events      
Averages and records for this station are not official NWS values.
T = Trace of Precipitation, MM = Missing Value Source: NWS Daily Summary

Daily Weather History Graph

Daily Weather History Graph

Search for Another Location

Airport or City:

Trip Planner

Search our weather history database for the weather conditions in past years. The results will help you decide how hot, cold, wet, or windy it might be!

Date:

Astronomy

Jan. 17, 2014 Rise Set
Actual Time 7:19 AM EST 5:14 PM EST
Civil Twilight 6:51 AM EST 5:43 PM EST
Nautical Twilight 6:19 AM EST 6:15 PM EST
Astronomical Twilight 5:48 AM EST 6:46 PM EST
Moon 6:56 PM EST (1/17) 7:49 AM EST (1/17)
Length of Visible Light 10h 51m
Length of Day
9h 54m
Full, 98% of the Moon is Illuminated
Jan 17
Full
Jan 24
Last Quarter
Jan 30
New
Feb 6
First Quarter
Feb 14
Full

Hourly Weather History & Observations

Time (EST) Temp. Windchill Dew Point Humidity Pressure Visibility Wind Dir Wind Speed Gust Speed Precip Events Conditions
12:15 AM 34.9 °F 30.8 °F 29.8 °F 82% 30.03 in 10.0 mi South 4.6 mph - N/A   Clear
12:35 AM 34.9 °F 30.8 °F 30.0 °F 82% 30.02 in 10.0 mi South 4.6 mph - N/A   Clear
12:55 AM 34.9 °F 29.9 °F 30.2 °F 83% 30.02 in 10.0 mi South 5.8 mph - N/A   Clear
1:15 AM 34.9 °F 29.9 °F 30.0 °F 82% 30.02 in 10.0 mi South 5.8 mph - N/A   Clear
1:35 AM 34.9 °F 30.8 °F 30.2 °F 83% 30.02 in 10.0 mi South 4.6 mph - N/A   Clear
1:55 AM 34.9 °F 30.8 °F 30.0 °F 82% 30.02 in 10.0 mi South 4.6 mph - N/A   Clear
2:15 AM 35.1 °F 32.2 °F 30.0 °F 82% 30.01 in 10.0 mi South 3.5 mph - N/A   Clear
2:35 AM 34.7 °F 30.6 °F 30.0 °F 83% 30.02 in 10.0 mi South 4.6 mph - N/A   Clear
2:55 AM 34.9 °F 29.9 °F 30.2 °F 83% 30.02 in 10.0 mi South 5.8 mph - N/A   Clear
3:15 AM 35.2 °F 30.3 °F 30.2 °F 82% 30.02 in 10.0 mi South 5.8 mph - N/A   Clear
3:35 AM 35.2 °F 30.3 °F 30.0 °F 81% 30.01 in 10.0 mi South 5.8 mph - N/A   Clear
3:55 AM 35.1 °F 31.0 °F 30.0 °F 82% 30.00 in 10.0 mi SSE 4.6 mph - N/A   Clear
4:15 AM 33.8 °F 29.6 °F 29.3 °F 84% 29.99 in 10.0 mi South 4.6 mph - N/A   Clear
4:35 AM 34.0 °F 28.8 °F 30.0 °F 85% 29.99 in 10.0 mi SSE 5.8 mph - N/A   Clear
4:55 AM 34.5 °F 29.4 °F 30.0 °F 84% 29.99 in 10.0 mi SSE 5.8 mph - N/A   Clear
5:15 AM 34.3 °F 28.4 °F 30.0 °F 84% 29.98 in 10.0 mi SSE 6.9 mph - N/A   Clear
5:35 AM 33.8 °F 28.6 °F 29.7 °F 85% 29.98 in 10.0 mi South 5.8 mph - N/A   Clear
5:55 AM 34.7 °F 28.8 °F 29.7 °F 82% 29.99 in 10.0 mi South 6.9 mph - N/A   Clear
6:15 AM 34.3 °F 28.4 °F 29.3 °F 82% 29.99 in 10.0 mi South 6.9 mph - N/A   Clear
6:35 AM 34.2 °F 29.0 °F 29.3 °F 82% 30.01 in 10.0 mi South 5.8 mph - N/A   Clear
6:55 AM 34.3 °F 28.4 °F 29.1 °F 81% 30.01 in 10.0 mi South 6.9 mph - N/A   Clear
7:15 AM 34.2 °F 28.2 °F 29.1 °F 82% 30.01 in 10.0 mi SSE 6.9 mph - N/A   Clear
7:35 AM 34.2 °F 28.2 °F 29.3 °F 82% 30.01 in 10.0 mi SSE 6.9 mph - N/A   Clear
7:55 AM 34.7 °F 28.1 °F 29.3 °F 81% 30.01 in 10.0 mi SSE 8.1 mph - N/A   Clear
8:15 AM 35.6 °F 29.9 °F 29.3 °F 78% 30.02 in 10.0 mi South 6.9 mph - N/A   Clear
8:35 AM 36.0 °F 29.6 °F 29.5 °F 77% 30.03 in 10.0 mi South 8.1 mph - N/A   Clear
8:55 AM 36.9 °F 31.4 °F 29.3 °F 74% 30.03 in 10.0 mi South 6.9 mph - N/A   Clear
9:15 AM 37.9 °F 33.5 °F 28.8 °F 70% 30.03 in 10.0 mi South 5.8 mph - N/A   Clear
9:35 AM 39.2 °F 33.6 °F 28.4 °F 65% 30.03 in 10.0 mi SSW 8.1 mph - N/A   Clear
9:55 AM 40.5 °F 36.5 °F 27.7 °F 60% 30.02 in 10.0 mi SSW 5.8 mph - N/A   Clear
10:15 AM 41.4 °F 36.8 °F 27.1 °F 57% 30.03 in 10.0 mi SSW 6.9 mph - N/A   Clear
10:35 AM 42.4 °F 38.8 °F 27.0 °F 54% 30.03 in 10.0 mi SSW 5.8 mph - N/A   Clear
10:55 AM 43.3 °F 38.6 °F 26.4 °F 51% 30.03 in 10.0 mi SW 8.1 mph - N/A   Clear
11:15 AM 44.1 °F 39.5 °F 26.6 °F 50% 30.03 in 10.0 mi SW 8.1 mph - N/A   Clear
11:35 AM 45.0 °F 41.2 °F 26.6 °F 49% 30.01 in 10.0 mi SW 6.9 mph - N/A   Clear
11:55 AM 45.5 °F 42.5 °F 25.7 °F 46% 29.99 in 10.0 mi South 5.8 mph - N/A   Clear
12:15 PM 46.9 °F - 25.3 °F 43% 29.97 in 10.0 mi South 6.9 mph - N/A   Clear
12:35 PM 47.3 °F - 24.6 °F 41% 29.96 in 10.0 mi SSE 6.9 mph - N/A   Clear
12:55 PM 48.7 °F - 25.7 °F 41% 29.94 in 10.0 mi SE 8.1 mph - N/A   Clear
1:15 PM 49.3 °F - 25.3 °F 39% 29.93 in 10.0 mi SE 6.9 mph - N/A   Clear
1:35 PM 50.0 °F - 25.2 °F 38% 29.93 in 10.0 mi SE 10.4 mph - N/A   Clear
1:55 PM 50.5 °F - 25.3 °F 38% 29.92 in 10.0 mi SSE 9.2 mph - N/A   Clear
2:15 PM 51.3 °F - 26.4 °F 38% 29.91 in 10.0 mi SSE 9.2 mph - N/A   Clear
2:35 PM 51.8 °F - 27.1 °F 39% 29.91 in 10.0 mi SSE 10.4 mph - N/A   Clear
2:55 PM 51.8 °F - 26.1 °F 37% 29.90 in 10.0 mi SE 5.8 mph - N/A   Clear
3:15 PM 51.8 °F - 27.3 °F 39% 29.90 in 10.0 mi SE 4.6 mph - N/A   Clear
3:35 PM 52.2 °F - 27.7 °F 39% 29.90 in 10.0 mi ESE 6.9 mph - N/A   Clear
3:55 PM 51.8 °F - 27.9 °F 40% 29.90 in 10.0 mi SE 4.6 mph - N/A   Clear
4:15 PM 51.3 °F - 28.8 °F 42% 29.89 in 10.0 mi SE 4.6 mph - N/A   Clear
4:35 PM 50.9 °F - 30.7 °F 46% 29.90 in 10.0 mi SE 3.5 mph - N/A   Clear
4:55 PM 50.4 °F - 30.2 °F 46% 29.90 in 10.0 mi Calm Calm - N/A   Clear
5:15 PM 48.9 °F - 31.1 °F 50% 29.90 in 10.0 mi ESE 3.5 mph - N/A   Clear
5:35 PM 46.0 °F 43.9 °F 32.0 °F 58% 29.89 in 10.0 mi ESE 4.6 mph - N/A   Clear
5:55 PM 44.4 °F 42.0 °F 32.9 °F 64% 29.88 in 10.0 mi ESE 4.6 mph - N/A   Scattered Clouds
6:15 PM 47.5 °F - 31.6 °F 54% 29.88 in 10.0 mi ESE 6.9 mph - N/A   Clear
6:35 PM 48.4 °F - 31.1 °F 51% 29.88 in 10.0 mi SE 5.8 mph - N/A   Clear
6:55 PM 49.6 °F - 30.6 °F 48% 29.88 in 10.0 mi SSE 8.1 mph - N/A   Scattered Clouds
7:15 PM 49.1 °F - 30.6 °F 49% 29.88 in 10.0 mi SSE 6.9 mph - N/A   Scattered Clouds
7:35 PM 48.6 °F - 30.6 °F 50% 29.88 in 10.0 mi SSE 6.9 mph - N/A   Scattered Clouds
7:55 PM 48.2 °F - 31.5 °F 52% 29.88 in 10.0 mi SSE 4.6 mph - N/A   Clear
8:15 PM 48.2 °F - 31.1 °F 52% 29.88 in 10.0 mi SSE 8.1 mph - N/A   Clear
8:35 PM 48.2 °F - 30.9 °F 51% 29.88 in 10.0 mi SSE 6.9 mph - N/A   Clear
8:55 PM 48.4 °F - 30.6 °F 50% 29.88 in 10.0 mi South 8.1 mph - N/A   Scattered Clouds
9:15 PM 48.6 °F - 30.2 °F 49% 29.88 in 10.0 mi South 6.9 mph - N/A   Scattered Clouds
9:35 PM 48.6 °F - 30.2 °F 49% 29.88 in 10.0 mi South 8.1 mph - N/A   Clear
9:55 PM 48.4 °F - 30.4 °F 50% 29.88 in 10.0 mi South 6.9 mph - N/A   Clear
10:15 PM 48.0 °F - 31.1 °F 52% 29.88 in 10.0 mi SSE 8.1 mph - N/A   Clear
10:35 PM 48.2 °F - 31.1 °F 52% 29.87 in 10.0 mi South 8.1 mph - N/A   Clear
10:55 PM 48.2 °F - 31.8 °F 53% 29.86 in 10.0 mi South 8.1 mph - N/A   Clear
11:15 PM 48.6 °F - 32.0 °F 53% 29.85 in 10.0 mi South 9.2 mph - N/A   Mostly Cloudy
11:35 PM 48.7 °F - 32.0 °F 52% 29.85 in 10.0 mi South 9.2 mph - N/A   Overcast
11:55 PM 49.1 °F - 32.2 °F 52% 29.84 in 10.0 mi South 9.2 mph - N/A   Overcast